This is the latest recevied weather packets stored in our database for station/object WA9NNN-10. If no packets are shown the sender has not sent any weather packets the latest 1 day(s).
| Time | Temp. | Humidity | Pressure | Rain* | Wind** | Luminosity | Snow |
|---|---|---|---|---|---|---|---|
| 1778004996 | 15.56° C | 32% | 1008.9 hPa | 0 mm | 0.89 m/s, 276° | - | - |
| 1778004697 | 15.56° C | 33% | 1008.8 hPa | 0 mm | 1.79 m/s, 274° | - | - |
| 1778004396 | 15.56° C | 33% | 1008.8 hPa | 0 mm | 1.34 m/s, 284° | - | - |
| 1778004097 | 15.56° C | 32% | 1008.8 hPa | 0 mm | 1.34 m/s, 299° | - | - |
| 1778003796 | 16.11° C | 32% | 1008.7 hPa | 0 mm | 0.89 m/s, 297° | - | - |
| 1778003497 | 16.67° C | 33% | 1008.6 hPa | 0 mm | 1.34 m/s, 283° | - | - |
| 1778003196 | 16.67° C | 33% | 1008.5 hPa | 0 mm | 1.34 m/s, 258° | - | - |
| 1778002897 | 16.67° C | 33% | 1008.7 hPa | 0 mm | 2.24 m/s, 208° | - | - |
| 1778002596 | 16.67° C | 36% | 1008.5 hPa | 0 mm | 1.79 m/s, 240° | - | - |
| 1778002296 | 16.11° C | 37% | 1008.7 hPa | 0 mm | 0 m/s | - | - |
| 1778001996 | 16.11° C | 38% | 1008.6 hPa | 0 mm | 0.89 m/s, 173° | - | - |
| 1778001697 | 16.11° C | 36% | 1008.6 hPa | 0 mm | 0.89 m/s, 290° | - | - |
| 1778001397 | 16.67° C | 38% | 1008.5 hPa | 0 mm | 0.45 m/s, 316° | - | - |
| 1778001097 | 16.67° C | 37% | 1008.6 hPa | 0 mm | 1.34 m/s, 238° | - | - |
| 1778000797 | 16.67° C | 36% | 1008.5 hPa | 0 mm | 1.34 m/s, 252° | - | - |
| 1778000496 | 16.11° C | 37% | 1008.5 hPa | 0 mm | 1.34 m/s, 258° | - | - |
| 1778000196 | 16.11° C | 37% | 1008.4 hPa | 0 mm | 3.13 m/s, 288° | - | - |
| 1777999897 | 15.56° C | 39% | 1008.4 hPa | 0 mm | 0.89 m/s, 219° | - | - |
| 1777999596 | 15.56° C | 39% | 1008.7 hPa | 0 mm | 0.45 m/s, 311° | - | - |
| 1777999297 | 15.56° C | 39% | 1008.8 hPa | 0 mm | 0.89 m/s, 247° | - | - |
| 1777998996 | 15° C | 39% | 1008.7 hPa | 0 mm | 2.24 m/s, 239° | - | - |
| 1777998696 | 15° C | 41% | 1008.5 hPa | 0 mm | 1.34 m/s, 284° | - | - |
| 1777998397 | 15° C | 41% | 1008.5 hPa | 0 mm | 1.34 m/s, 246° | - | - |
| 1777998096 | 14.44° C | 42% | 1008.5 hPa | 0 mm | 0.89 m/s, 288° | - | - |
| 1777997796 | 14.44° C | 41% | 1008.5 hPa | 0 mm | 1.34 m/s, 337° | - | - |
* Rain latest hour (hover to see other rain measurements)
** Current wind speed in m/s (hover to see current wind gust speed)